Powrót do katalogu

STARLINK-38111

AktywnyŁącznośćSSO
NORAD 100152·PAYLOAD·🇺🇸 United States

Wystrzelony Jul 25, 2026 z Vandenberg Space Force Base

Loading…

Następne Przeloty (najbliższe 24 godziny)

TLE

ŚwieżeSource: Space-Track

Epoka: Sep 14, 2026, 14:11 UTC

1 A0152U 26171E   26257.59165704 -.00286433  00000-0 -91473-2 0  9998
2 A0152  97.2839 290.1655 0000580  69.9607 290.1698 15.33662239  7996

Śledź STARLINK-38111 w czasie rzeczywistym z AllMySat

Download on the App Store